カタログに戻る

STARLINK-11355

運用中通信VLEO
NORAD 62415·PAYLOAD·🇺🇸 United States

打ち上げ Dec 23, 2024 から Cape Canaveral Space Force Station

Loading…

次のパス (今後24時間)

TLE

最新Source: CelesTrak SupGP

元期: Sep 15, 2026, 02:14 UTC

1 62415C 24249G   26258.09354167  .00106860  00000+0  82952-3 0  2584
2 62415  43.0006 105.7696 0001932 266.2344  10.6746 15.70799080    10

AllMySatでSTARLINK-11355をリアルタイム追跡

Download on the App Store